Flag for U.S.A. Weather past 2 weeks in St. Paul, Minnesota, U.S.A.

Now
72 °F

Sunny.


Feels Like: 77 °F
Forecast: 56 / 77 °F
Wind: 3 mph from Southeast

Location: St. Paul Downtown Holman Field

Current Time: Jul 2, 2015 at 12:33:52 PM

Latest Report: Jul 2, 2015 at 11:53 AM


Visibility: 10 mi

Pressure: 30.02 "Hg

Humidity: 52%

Dew point: 53 °F

Location of St. PaulLocation

Historic Weather in St. Paul — Graph

°F

St. Paul temperature yesterday

Maximum temperature yesterday: 73 °F (at 6:53 PM)
Minimum temperature yesterday: 58 °F (at 4:53 AM)
Average temperature yesterday: 64 °F

Past Weeks' High & Low Weather Summary

 TemperatureHumidityPressure
High84 °F (Jun 21, 3:53 PM)100% (Jun 22, 8:59 AM)30.11 "Hg (Jun 22, 8:59 AM)
Low55 °F (Jul 2, 4:53 AM)36% (Jun 21, 4:53 PM)29.47 "Hg (Jun 22, 9:53 AM)
Average70 °F71%29.93 "Hg
* Reported Jun 17 10:00 AM — Jul 2 10:53 AM, St. Paul, Weather by CustomWeather, © 2015

Note: Actual official high and low records may vary slightly from our data, if they occured in-between our weather recording intervals... More about our weather records

Advertising

St. Paul weather history for previous 24 hours

 ConditionsComfort  
Time TempWeatherWind HumidityBarometerVisibility
10:53 AM
Thu, Jul 2
71 °FSunny.3 mph53%30.02 "Hg10 mi
9:53 AM69 °FSunny.5 mph63%30.03 "Hg10 mi
8:53 AM65 °FSunny.No wind73%30.03 "Hg10 mi
7:53 AM62 °FSunny.No wind83%30.03 "Hg10 mi
6:53 AM57 °FSunny.No wind93%30.03 "Hg8 mi
5:53 AM56 °FClear.No wind93%30.04 "Hg10 mi
4:53 AM55 °FClear.No wind93%30.02 "Hg10 mi
3:53 AM57 °FClear.No wind93%30.00 "Hg10 mi
2:53 AM58 °FClear.No wind87%30.01 "Hg10 mi
1:53 AM58 °FClear.No wind87%30.01 "Hg10 mi
12:53 AM60 °FClear.No wind83%30.00 "Hg10 mi
11:53 PM
Wed, Jul 1
61 °FClear.No wind81%30.00 "Hg10 mi
10:53 PM65 °FClear.No wind68%30.01 "Hg10 mi
9:53 PM64 °FSunny.No wind70%30.01 "Hg10 mi
8:53 PM68 °FSunny.3 mph65%29.99 "Hg10 mi
7:53 PM71 °FSunny.5 mph53%29.98 "Hg10 mi
6:53 PM73 °FPassing clouds.No wind51%29.97 "Hg10 mi
5:53 PM72 °FSunny.3 mph55%29.98 "Hg10 mi
4:53 PM72 °FSunny.No wind52%29.98 "Hg10 mi
3:53 PM71 °FSunny.6 mph55%29.99 "Hg10 mi
2:53 PM69 °FSunny.No wind55%30.00 "Hg10 mi
1:53 PM66 °FSunny.3 mph56%30.01 "Hg10 mi
12:53 PM64 °FSunny.3 mph56%30.01 "Hg10 mi
Weather by CustomWeather, © 2015

See weather overviewHow to use our weather pages